• Join FlightAware (Why Join?)
  • Login
  • US Flag GB Flag 
10:10 EDT


 

Airport Tracker/Info


-or-


 

Live Flight TrackerFlight Track Log ✈ N983CE ✈ 07-May-2013 ✈ KPLN - KPTK

Flight Track Log - Related Links

Times and Time Zones

All times are in EDT time to prevent confusion due to time zone crossing. See the N983CE flight status page for this flight to view local times or setup timezone preferences in your user account.

Time Position Orientation Groundspeed Altitude Reporting Facility
EDT Latitude Longitude Course Direction KTS MPH feet Rate Location/Type
17:23 45.4639 -84.8550 170° South 247 284 10,900  Level Minneapolis Center
17:24 45.3933 -84.8453 174° South 250 288 14,700 3,720 Climbing Minneapolis Center
17:25 45.2978 -84.8311 174° South 265 305 18,700 3,000 Climbing Minneapolis Center
17:26 45.2072 -84.8150 173° South 323 372 20,900 1,080 Climbing Minneapolis Center
17:27 45.1069 -84.7981 173° South 338 389 21,000  Climbing Minneapolis Center
17:28 45.0078 -84.7822 174° South 336 387 21,000  Level Minneapolis Center
17:29 44.9172 -84.7672 173° South 332 382 21,000  Level Minneapolis Center
17:30 44.8208 -84.7514 173° South 328 377 21,000  Level Minneapolis Center
17:31 44.7464 -84.7300 168° South 320 368 21,000  Level Minneapolis Center
17:32 44.6439 -84.6722 158° South 329 379 21,000  Level Minneapolis Center
17:33 44.5572 -84.6256 159° South 333 383 21,000  Level Minneapolis Center
17:34 44.4708 -84.5806 160° South 332 382 21,000  Level Minneapolis Center
17:35 44.3736 -84.5275 159° South 333 383 21,000  Level Minneapolis Center
17:36 44.2883 -84.4836 160° South 330 380 21,000 -720 Level Minneapolis Center
17:37 44.1961 -84.4339 159° South 333 383 19,600 -960 Descending Minneapolis Center
17:38 44.1086 -84.3886 160° South 340 391 19,000 -300 Descending Minneapolis Center
17:39 44.0169 -84.3408 159° South 328 377 19,000  Level Minneapolis Center
17:40 43.9372 -84.2992 159° South 323 372 19,000  Level Minneapolis Center
17:41 43.8486 -84.2542 160° South 332 382 19,000  Level Minneapolis Center
17:42 43.7569 -84.2053 159° South 345 397 19,000 660 Level Minneapolis Center
17:44 43.6289 -84.1386 159° South 350 403 20,600  Climbing Minneapolis Center
17:44 43.5569 -84.1039 161° South 347 399 19,000 -6,000 Descending Cleveland Center
17:45 43.4667 -84.0558 159° South 347 399 10,000 -3,900 Descending Cleveland Center
17:46 43.3783 -84.0108 160° South 336 387 11,200 480 Climbing Cleveland Center
17:47 43.2922 -83.9689 160° South 343 395 11,000 -120 Descending Cleveland Center
17:48 43.2039 -83.9242 160° South 343 395 11,000  Level Cleveland Center
17:49 43.1156 -83.8797 160° South 343 395 11,000 -1,260 Level Cleveland Center
17:50 43.0375 -83.8386 159° South 328 377 8,500 -2,820 Descending Cleveland Center
17:51 42.9842 -83.8103 159° South 264 304 6,000 -2,520 Descending Cleveland Center
17:52 42.9492 -83.7942 161° South 256 295 5,300 -1,500 Descending Cleveland Center
17:52 42.9039 -83.7719 160° South 258 297 4,200 -1,200 Descending Cleveland Center
17:53 42.8833 -83.7625 161° South 253 291 4,100 -240 Descending Cleveland Center
17:53 42.8397 -83.7489 167° South 252 290 4,000  Descending Cleveland Center
17:54 42.8169 -83.7450 173° South 248 285 4,100  Climbing Cleveland Center
17:54 42.7775 -83.7403 175° South 252 290 4,000 -300 Descending Cleveland Center
17:55 42.7553 -83.7136 139° Southeast 243 280 3,800 -720 Descending Cleveland Center
17:55 42.7275 -83.6669 129° Southeast 234 269 3,300 -840 Descending Cleveland Center
17:56 42.7114 -83.6408 130° Southeast 231 266 3,000 -600 Descending Cleveland Center
17:56 42.6894 -83.6028 128° Southeast 221 254 2,700 -540 Descending Cleveland Center
17:57 42.6817 -83.5828 118° Southeast 175 201 2,500 -240 Descending Cleveland Center
17:58 42.6600 -83.5336 121° Southeast 142 163 2,400 -360 Descending Cleveland Center
17:59 42.6633 -83.4803 85° East 120 138 1,800 -600 Descending Cleveland Center
18:01 42.6500 -83.4167 144° Southeast  Level FlightAware Approximate
18:08 42.6656 -83.4205 144° Southeast  Level Estimated